Вернуться в каталог

COSMOS 2251 DEB

АктивенLEO
NORAD 33973·DEBRIS·🇷🇺 Russia

Запущен Jun 16, 1993 с Plesetsk Cosmodrome

Loading…

Ближайшие Пролёты (ближайшие 24 часа)

TLE

СвежийSource: Space-Track

Эпоха: Sep 14, 2026, 10:35 UTC

1 33973U 93036FG  26257.44147392  .00000204  00000-0  64611-4 0  9990
2 33973  74.0083 308.0167 0044929  59.3515 313.6552 14.45611539925842

Отслеживайте COSMOS 2251 DEB в реальном времени с AllMySat

Download on the App Store